Regional Weather Roundup
Issued by NWS Mt. Holly, NJ

Home | Current Version | Previous Version | Text Only | Print | Product List | Glossary On
Versions: 1 2 3 4 5 6 7 8 9 10 11 12 13 14 15 16 17 18 19 20 21 22 23 24 25 26 27 28 29 30 31 32 33 34 35 36 37 38 39 40 41 42 43 44 45 46 47 48 49 50
000
ASUS41 KPHI 201610
RWRPHI

REGIONAL WEATHER ROUNDUP
NATIONAL WEATHER SERVICE MOUNT HOLLY NJ
1200 PM EDT SAT SEP 20 2014

NOTE:  "FAIR" INDICATES FEW OR NO CLOUDS BELOW 12,000 FEET WITH NO
SIGNIFICANT WEATHER AND/OR OBSTRUCTIONS TO VISIBILITY.

 * = STATION DOES NOT REPORT PRECIPITATION (E.G. RAIN, SNOW, ETC.)
        OR FOG.

NJZ015>026-201700-
SOUTHERN NEW JERSEY

CITY           SKY/WX    TMP DP  RH WIND       PRES   REMARKS
POMONA         CLOUDY    74  61  63 SE14      30.26S
RIO GRANDE*    CLOUDY    73  61  64 SE9       30.26S
MILLVILLE      PTSUNNY   77  60  55 SE10      30.25F
WRIGHTSTOWN    MOSUNNY   75  60  60 SE8       30.23F
MOUNT HOLLY    MOSUNNY   75  58  55 VRB7      30.25F
TRENTON        PTSUNNY   73  57  57 S12       30.26S

$$
NJZ001>014-201700-
NORTHERN NEW JERSEY

CITY           SKY/WX    TMP DP  RH WIND       PRES   REMARKS
SUSSEX         CLOUDY    73  57  57 S9        30.24F
ANDOVER*         N/A     68  56  65 MISG      30.26F
MORRISTOWN     CLOUDY    73  57  56 S13       30.26F
NEWARK         PTSUNNY   72  58  61 SE8G20    30.26F
TETERBORO      PTSUNNY   72  55  55 S10       30.25F
CALDWELL       MOSUNNY   71  54  54 S8        30.26F
SOMERVILLE     MOSUNNY   74  58  57 S7        30.24F
ALLAIRE*       PTSUNNY   72  57  60 SE13      30.27F
TOMS RIVER*    PTSUNNY   73  57  56 SE7       30.27F

$$
PAZ043-044-047-054-055-060>062-066>071-201700-
EASTERN PENNSYLVANIA

CITY           SKY/WX    TMP DP  RH WIND       PRES   REMARKS
PHILADELPHIA   MOSUNNY   75  58  55 S9        30.25F
NORTH PHILA    MOSUNNY   75  55  49 SW9       30.27F
BLUE BELL      PTSUNNY   73  61  64 SE5       30.25F
DOYLESTOWN     PTSUNNY   70  57  63 S8        30.25F
QUAKERTOWN*    PTSUNNY   72  57  60 SW10      30.26F
POTTSTOWN      PTSUNNY   72  58  61 VRB6      30.26F
LANCASTER      PTSUNNY   73  58  59 S8        30.23F
COATESVILLE    PTSUNNY   70  59  68 SE8       30.26F
READING        MOSUNNY   73  58  59 S8        30.22F
ALLENTOWN      CLOUDY    71  56  58 S8        30.24F
MOUNT POCONO   CLOUDY    60  55  83 S9        30.26F
HAZLETON       CLOUDY    64  57  77 S9G20     30.26F
WILKES BARRE   CLOUDY    66  56  70 S8        30.22F

$$
DEZALL-MDZ008-012-015-019-020-201700-
DELAWARE AND EASTERN MARYLAND

CITY           SKY/WX    TMP DP  RH WIND       PRES   REMARKS
WILMINGTON     MOSUNNY   75  61  61 S14       30.25F
DOVER          MOSUNNY   76  65  69 E14       30.23F
GEORGETOWN     CLOUDY    75  62  64 SE13      30.24F
PATUXENT       MOSUNNY   74  63  68 E8        30.23F
OCEAN CITY     CLOUDY    74  65  73 E8        30.24S
WALLOPS ISLAND CLOUDY    74  64  71 E15       30.24R
CAMBRIDGE      MOSUNNY   77  59  53 SE5       30.22F
SALISBURY      CLOUDY    77  64  64 E8        30.23F

$$
PAZ001-021-NYZ056-072-MDZ011-DCZ001-201700-
OTHER NEARBY LOCATIONS

CITY           SKY/WX    TMP DP  RH WIND       PRES   REMARKS
HARRISBURG     PTSUNNY   75  60  59 SW8       30.21F
STATE COLLEGE  PTSUNNY   68  59  73 S13G20    30.18F
WILLIAMSPORT   PTSUNNY   71  58  63 S14G22    30.16F
BINGHAMTON     CLOUDY    62  56  80 S12G24    30.17F
NEW YORK CITY  PTSUNNY   71  55  56 VRB6      30.28F
BALTIMORE      PTSUNNY   75  59  57 VRB6      30.22F
WASHINGTON DC  MOSUNNY   77  58  51 S7        30.23F

$$


USA.gov is the U.S. government's official web portal to all federal, state and local government web resources and services.